This demonstration page uses our WeatherBlox Daily Observations layout. Learn more.

Left ArrowRight Arrow

30.21309, -93.2044

Hourly Observations for October 3, 2022

Temp ( °F °C ) Dew Point ( °F °C ) Humidity (%) Winds ( mph kmh ) Pressure ( in mb ) Visibility ( mi km ) Precip ( " mm )
12:15 am 00:15 Clear 65 18.4 49 9.7 57 57 NNE 7 11 30.11 1020 10 16 0.00 0.00
12:35 am 00:35 Clear 65 18.5 49 9.6 56 56 NNE 6 9 30.11 1020 10 16 0.00 0.00
12:55 am 00:55 Clear 65 18.2 49 9.6 57 57 NNE 6 9 30.10 1019 10 16 0.00 0.00
1:15 am 01:15 Clear 64 18 49 9.5 58 58 NNE 6 9 30.10 1019 10 16 0.00 0.00
1:35 am 01:35 Clear 64 17.7 49 9.5 59 59 NNE 7 11 30.10 1019 10 16 0.00 0.00
1:55 am 01:55 Clear 64 17.5 49 9.6 60 60 NNE 7 11 30.10 1019 10 16 0.00 0.00
2:15 am 02:15 Clear 63 17.2 49 9.6 61 61 NNE 6 9 30.11 1020 10 16 0.00 0.00
2:35 am 02:35 Clear 63 17.1 49 9.7 62 62 NNE 7 11 30.10 1019 10 16 0.00 0.00
2:55 am 02:55 Clear 63 17 49 9.6 62 62 NNE 6 9 30.09 1019 10 16 0.00 0.00
3:15 am 03:15 Clear 62 16.8 49 9.7 63 63 NNE 6 9 30.09 1019 10 16 0.00 0.00
3:35 am 03:35 Clear 62 16.5 49 9.5 63 63 NNE 6 9 30.09 1019 10 16 0.00 0.00
3:55 am 03:55 Clear 61 16.2 49 9.6 65 65 NNE 5 7 30.10 1019 10 16 0.00 0.00
4:15 am 04:15 Clear 60 15.7 49 9.6 67 67 N 5 7 30.10 1019 10 16 0.00 0.00
4:35 am 04:35 Clear 60 15.4 49 9.7 69 69 NNE 5 7 30.10 1019 10 16 0.00 0.00
4:55 am 04:55 Clear 60 15.4 49 9.5 68 68 NNE 7 11 30.09 1019 10 16 0.00 0.00
5:15 am 05:15 Clear 60 15.6 49 9.6 67 67 NNE 7 11 30.10 1019 10 16 0.00 0.00
5:35 am 05:35 Clear 60 15.3 49 9.6 69 69 NNE 7 11 30.10 1019 10 16 0.00 0.00
6:00 am 06:00 Mostly Clear 59 15 48 9 67 67 NNE 8 13 30.10 1019 10 16 0.00 0.00
6:45 am 06:45 Mostly Clear 59 15 48 9 67 67 NNE 8 13 30.10 1019 10 16 0.00 0.00
7:50 am 07:50 Mostly Sunny 61 16 50 10 68 68 NNE 6 9 30.12 1020 10 16 0.00 0.00
8:47 am 08:47 Mostly Sunny 66 19 50 10 56 56 NE 8 13 30.13 1020 10 16 0.00 0.00
9:47 am 09:47 Mostly Sunny 72 22 52 11 50 50 NE 12 19 30.14 1021 10 16 0.00 0.00
10:53 am 10:53 Mostly Sunny 77 25 52 11 41 41 ENE 7 11 30.14 1021 10 16 0.00 0.00
11:53 am 11:53 Mostly Sunny 81 27 52 11 37 37 ENE 8 13 30.13 1020 10 16 0.00 0.00
12:50 pm 12:50 Mostly Sunny 82 28 50 10 32 32 Calm 30.11 1020 10 16 0.00 0.00
1:45 pm 13:45 Mostly Sunny 84 29 50 10 31 31 N 6 9 30.08 1019 10 16 0.00 0.00
2:45 pm 14:45 Mostly Sunny 86 30 52 11 31 31 NNE 8 13 30.06 1018 10 16 0.00 0.00
3:46 pm 15:46 Mostly Sunny 86 30 50 10 29 29 NE 9 15 30.03 1017 10 16 0.00 0.00
4:50 pm 16:50 Mostly Sunny 86 30 52 11 31 31 NE 8 13 30.02 1017 10 16 0.00 0.00
5:47 pm 17:47 Mostly Sunny 84 29 52 11 33 33 NNE 7 11 30.03 1017 10 16 0.00 0.00
6:46 pm 18:46 Mostly Sunny 79 26 52 11 39 39 ENE 6 9 30.04 1017 10 16 0.00 0.00
7:55 pm 19:55 Mostly Clear 75 24 52 11 44 44 NE 5 7 30.05 1018 10 16 0.00 0.00
8:54 pm 20:54 Mostly Clear 73 23 52 11 47 47 NE 5 7 30.07 1018 10 16 0.00 0.00
9:55 pm 21:55 Mostly Clear 70 21 52 11 53 53 NE 6 9 30.08 1019 10 16 0.00 0.00
10:15 pm 22:15 Clear 70 21.3 52 11.1 52 52 ENE 7 11 30.08 1019 10 16 0.00 0.00
10:35 pm 22:35 Clear 70 21.2 52 11 52 52 ENE 6 9 30.09 1019 10 16 0.00 0.00
10:55 pm 22:55 Clear 70 21.2 51 10.8 51 51 ENE 6 9 30.09 1019 10 16 0.00 0.00
11:15 pm 23:15 Clear 69 20.7 51 10.8 53 53 ENE 7 11 30.08 1019 10 16 0.00 0.00
11:35 pm 23:35 Clear 69 20.5 51 10.8 54 54 ENE 6 9 30.08 1019 10 16 0.00 0.00
11:55 pm 23:55 Clear 68 20.1 52 10.9 55 55 ENE 7 11 30.08 1019 10 16 0.00 0.00

Powered by AerisWeather